Flag for Iran Weather past 2 weeks in Mashhad, Iran

Now
70 °F

Clear.


Feels Like: 70 °F
Forecast: 55 / 85 °F
Wind: 16 mph from Southeast

Location: Mashhad Airport

Current Time: Sep 30, 2014 at 8:14:36 PM

Latest Report: Sep 30, 2014 at 7:30 PM


Visibility: 4 mi

Pressure: 30.18 "Hg

Humidity: 43%

Dew point: 46 °F

Location of MashhadLocation

Historic Weather in Mashhad — Graph

°F

Mashhad temperature yesterday

Maximum temperature yesterday: 95 °F (at 2:30 PM)
Minimum temperature yesterday: 61 °F (at 4:30 AM)
Average temperature yesterday: 77 °F

Past Weeks' High & Low Weather Summary

 TemperatureHumidityPressure
High95 °F (Sep 17, 2:00 PM)77% (Sep 28, 5:00 AM)30.27 "Hg (Sep 28, 5:00 AM)
Low54 °F (Sep 20, 5:30 AM)6% (Sep 16, 1:30 PM)29.77 "Hg (Sep 26, 3:00 PM)
Average74 °F30%29.99 "Hg
* Reported Sep 15 7:30 PM — Sep 30 7:00 PM, Mashhad, Weather by CustomWeather, © 2014

Note: Actual official high and low records may vary slightly from our data, if they occured in-between our weather recording intervals... More about our weather records

Advertising

Mashhad weather history for previous 24 hours

 ConditionsComfort  
Time TempWeatherWind HumidityBarometerVisibility
7:00 PM
Sep 30
70 °FClear.12 mph43%30.18 "Hg10 mi
6:30 PM73 °FClear.14 mph38%30.15 "Hg10 mi
6:00 PM73 °FClear.16 mph38%30.15 "Hg10 mi
5:30 PM75 °FSunny.18 mph34%30.15 "Hg5 mi
5:00 PM77 °FSunny.21 mph32%30.12 "Hg10 mi
4:30 PM79 °FSunny.21 mph28%30.12 "Hg10 mi
4:00 PM81 °FSunny.21 mph28%30.12 "Hg10 mi
3:30 PM82 °FSunny.21 mph25%30.09 "Hg10 mi
3:00 PM84 °FSunny.18 mph23%30.12 "Hg10 mi
2:30 PM86 °FSunny.21 mph20%30.09 "Hg10 mi
2:00 PM86 °FSunny.21 mph20%30.09 "Hg10 mi
1:30 PM84 °FSunny.12 mph22%30.09 "Hg10 mi
1:00 PM84 °FSunny.14 mph22%30.12 "Hg10 mi
12:30 PM86 °FSunny.16 mph19%30.12 "Hg10 mi
12:00 PM84 °FSunny.14 mph20%30.12 "Hg10 mi
11:30 AM84 °FSunny.12 mph22%30.12 "Hg10 mi
11:00 AM82 °FSunny.9 mph25%30.15 "Hg10 mi
10:30 AM81 °FSunny.12 mph26%30.15 "Hg10 mi
10:00 AM81 °FSunny.5 mph28%30.15 "Hg10 mi
9:30 AM79 °FSunny.7 mph32%30.15 "Hg10 mi
9:00 AM77 °FSunny.12 mph34%30.15 "Hg10 mi
8:30 AM77 °FSunny.18 mph34%30.15 "Hg10 mi
8:00 AM75 °FSunny.16 mph39%30.15 "Hg10 mi
7:30 AM73 °FSunny.12 mph41%30.12 "Hg10 mi
7:00 AM72 °FSunny.9 mph44%30.12 "Hg10 mi
6:00 AM68 °FSunny.9 mph49%30.09 "Hg2 mi
5:30 AM64 °FClear.No wind46%30.07 "Hg2 mi
5:00 AM64 °FClear.5 mph46%30.07 "Hg10 mi
4:30 AM64 °FClear.5 mph40%30.04 "Hg10 mi
4:00 AM64 °FClear.5 mph40%30.04 "Hg10 mi
3:30 AM64 °FClear.5 mph37%30.04 "Hg10 mi
3:00 AM66 °FClear.5 mph37%30.04 "Hg10 mi
2:30 AM66 °FClear.7 mph32%30.01 "Hg10 mi
2:00 AM66 °FClear.5 mph35%30.01 "Hg10 mi
1:30 AM68 °FClear.No wind33%30.01 "Hg10 mi
1:00 AM68 °FClear.5 mph33%30.01 "Hg10 mi
12:30 AM70 °FClear.5 mph33%30.01 "Hg10 mi
12:00 AM70 °FClear.5 mph35%30.01 "Hg10 mi
11:30 PM
Sep 29
70 °FClear.5 mph35%30.01 "Hg10 mi
10:30 PM73 °FClear.5 mph29%30.01 "Hg10 mi
10:00 PM73 °FClear.7 mph29%30.01 "Hg10 mi
9:30 PM75 °FClear.7 mph29%30.01 "Hg10 mi
8:55 PM73 °FClear.No wind27%30.01 "Hg10 mi
8:30 PM75 °FClear.7 mph21%30.01 "Hg10 mi
8:00 PM77 °FClear.9 mph21%30.01 "Hg10 mi
Weather by CustomWeather, © 2014

See weather overviewHow to use our weather pages